EW9931 Weather Reports


time (UTC)temp
C
wind
direction
speed
KPH
gust
KPH
rain 1hr
cm
rain 24hr
cm
rain mn
cm
humidity
%
barometer
mb
20260505041610 0 176 0.0 0.0 0.00 0.00 0.00 87 1007.6
20260505040104 0 151 0.0 0.0 0.00 0.00 0.00 87 1007.5
20260505034558 1 158 1.6 0.0 0.00 0.00 0.00 87 1007.4
20260505033058 1 210 1.6 0.0 0.00 0.00 0.00 87 1007.3
20260505031604 1 155 0.0 0.0 0.00 0.00 0.00 86 1007.2
20260505030104 1 131 1.6 0.0 0.00 0.00 0.00 86 1007.8
20260505024607 1 188 1.6 0.0 0.00 0.00 0.00 85 1007.8
20260505023059 1 215 0.0 0.0 0.00 0.00 0.00 82 1007.8
20260505021558 1 181 0.0 0.0 0.00 0.00 0.00 82 1007.8
20260505020103 1 216 4.8 0.0 0.00 0.00 0.00 82 1008.4
20260505014554 1 224 1.6 0.0 0.00 0.00 0.00 83 1008.5
20260505013053 1 152 0.0 0.0 0.00 0.00 0.00 85 1008.5
20260505011552 1 150 1.6 0.0 0.00 0.00 0.00 85 1008.5
20260505010107 1 195 1.6 0.0 0.00 0.00 0.00 85 1008.1
20260505004551 1 200 1.6 0.0 0.00 0.00 0.00 83 1008.3
20260505003052 1 172 1.6 0.0 0.00 0.00 0.00 82 1008.3
20260505001550 1 196 1.6 0.0 0.00 0.00 0.00 80 1008.1
20260505000054 2 148 1.6 0.0 0.00 0.00 0.00 77 1007.6
20260504234551 1 223 1.6 0.0 0.00 0.00 0.00 76 1007.8
20260504233054 2 213 1.6 0.0 0.00 0.00 0.00 77 1007.7
20260504231548 2 206 1.6 0.0 0.00 0.00 0.00 76 1007.7
20260504230107 2 224 3.2 0.0 0.00 0.00 0.00 75 1007.9
20260504224600 2 182 6.4 0.0 0.00 0.00 0.00 77 1007.9
20260504223047 2 193 6.4 0.0 0.00 0.00 0.00 75 1007.8
20260504221546 2 141 11.3 0.0 0.00 0.00 0.00 68 1007.3
20260504220052 3 215 6.4 0.0 0.00 0.00 0.00 70 1007.7
20260504214546 2 203 9.7 0.0 0.00 0.00 0.00 69 1008.1
20260504213043 3 213 8.0 0.0 0.00 0.00 0.00 68 1008.1
20260504211543 3 206 8.0 0.0 0.00 0.00 0.00 66 1008.4
20260504210055 3 205 4.8 0.0 0.00 0.00 0.00 65 1008.6
20260504204548 3 186 4.8 0.0 0.00 0.00 0.00 64 1008.9
20260504203044 3 205 4.8 0.0 0.00 0.00 0.00 63 1008.5
20260504201546 3 202 6.4 0.0 0.00 0.00 0.00 64 1009.1
20260504200050 3 202 6.4 0.0 0.00 0.00 0.00 64 1008.9
20260504194539 3 199 8.0 0.0 0.00 0.00 0.00 65 1009.0
20260504193043 5 203 4.8 0.0 0.00 0.00 0.00 60 1008.3
20260504191539 4 148 6.4 0.0 0.00 0.00 0.00 60 1008.4
20260504190037 4 212 4.8 0.0 0.00 0.00 0.00 58 1007.6
20260504184539 4 205 4.8 0.0 0.00 0.00 0.00 54 1007.8
20260504183037 5 203 4.8 0.0 0.00 0.00 0.00 58 1007.6
20260504181535 5 200 1.6 0.0 0.00 0.00 0.00 57 1007.6
20260504180035 4 133 3.2 0.0 0.00 0.00 0.00 56 1007.6
20260504174534 4 192 1.6 0.0 0.00 0.00 0.00 52 1007.2
20260504173034 5 203 1.6 0.0 0.00 0.00 0.00 53 1006.9
20260504171532 5 117 1.6 0.0 0.00 0.00 0.00 51 1007.0
20260504081544 1 137 1.6 0.0 0.00 0.00 0.00 87 1003.3